Regional Weather Roundup
Issued by NWS

Home | Current Version | Previous Version | Graphics & Text | Print | Product List | Glossary On
Versions: 1 2 3 4 5 6 7 8 9 10 11 12 13 14 15 16 17 18 19 20 21 22 23 24 25 26 27 28 29 30 31 32 33 34 35 36 37 38 39 40 41 42 43 44 45 46 47 48 49 50
000
ASUS45 KPSR 071100
RWRAZ

ARIZONA HOURLY REGIONAL WEATHER ROUNDUP
NATIONAL WEATHER SERVICE PHOENIX AZ
400 AM MST TUE JUL 07 2015

NOTE: FAIR INDICATES FEW OR NO CLOUDS BELOW 12,000 FEET WITH NO
SIGNIFICANT WEATHER AND/OR OBSTRUCTIONS TO VISIBILITY.

AZZ001>003-036-071200-
NORTHWEST ARIZONA

CITY           SKY/WX    TMP DP  RH WIND       PRES   REMARKS
KINGMAN        CLEAR     66  52  60 SE7       30.02S
$$

AZZ004>008-015-016-018-071200-
NORTH CENTRAL ARIZONA

CITY           SKY/WX    TMP DP  RH WIND       PRES   REMARKS
GRAND CANYON   CLEAR     45  43  93 CALM      30.25R
WILLIAMS       CLEAR     50  48  93 S8        30.31F
PRESCOTT       CLEAR     63  53  70 NW3       30.15F
FLAGSTAFF      NOT AVBL
PAYSON         CLEAR     63  52  67 CALM      30.16S
PAGE           PTCLDY    67  57  70 S3        30.09S
$$

AZZ009>014-017-071200-
NORTHEAST ARIZONA

CITY           SKY/WX    TMP DP  RH WIND       PRES   REMARKS
WINSLOW        NOT AVBL
SAINT JOHNS    CLEAR     63  51  65 SW3       30.18R
WINDOW ROCK    CLEAR     54  49  83 CALM      30.24S
SHOW LOW       CLEAR     55  50  82 S6        30.24S
$$

AZZ023-071200-
GREATER PHOENIX AREA

CITY           SKY/WX    TMP DP  RH WIND       PRES   REMARKS
PHOENIX        PTCLDY    87  65  47 E8        29.85S
LUKE AFB       CLEAR     86  61  42 W3        29.84S
DEER VALLEY    CLEAR     83  57  41 N3        29.87S
SCOTTSDALE     CLEAR     87  57  35 CALM      29.89S
$$

AZZ027-028-071200-
SOUTHWEST MARICOPA COUNTY AND PINAL COUNTY

CITY           SKY/WX    TMP DP  RH WIND       PRES   REMARKS
CASA GRANDE    CLEAR     79  63  57 CALM      29.88S
GILA BEND      FAIR      82  63  52 S6        29.84R
$$

AZZ503-504-507>509-071200-
SOUTHEAST ARIZONA

CITY           SKY/WX    TMP DP  RH WIND       PRES   REMARKS
TUCSON         CLEAR     77  63  61 CALM      30.00S
DAVIS-MONTHAN  CLEAR     76  64  67 SE5       29.99R
NOGALES        CLEAR     67  63  87 CALM      30.09S
SIERRA VISTA   CLEAR     67  62  86 VRB1      30.14R
SAFFORD        CLEAR     78  61  55 N9        29.98S
$$

AZZ020-021-025-026-031-071200-
SOUTHWEST ARIZONA

CITY           SKY/WX    TMP DP  RH WIND       PRES   REMARKS
YUMA           CLEAR     85  40  20 CALM      29.80S
$$

CAZ031-033-041-043-047-048-061-071200-
SOUTHERN CALIFORNIA

CITY           SKY/WX    TMP DP  RH WIND       PRES   REMARKS
DOWNTOWN L.A.  CLOUDY    66  59  78 CALM      29.97S
L.A. AIRPORT   CLOUDY    64  60  87 W6        29.98S
SAN DIEGO      CLOUDY    66  59  78 SW3       29.99F
BURBANK        CLOUDY    64  58  80 CALM      29.97F
ONTARIO        CLOUDY    64  58  80 SW6       29.98F
RIVERSIDE        N/A    N/A N/A N/A MISG      29.99S
PALM SPRINGS   CLEAR     80  59  48 CALM      29.83S
EL CENTRO NAS  CLEAR     81  59  47 CALM      29.78S
IMPERIAL       CLEAR     82  64  54 SE9       29.76S
BLYTHE         CLEAR     85  50  29 S10       29.80S
$$

NVZ020-UTZ003-071200-
SOUTHERN NEVADA-UTAH

CITY           SKY/WX    TMP DP  RH WIND       PRES   REMARKS
LAS VEGAS      NOT AVBL
SALT LAKE CITY PTCLDY    67  59  75 S6        30.06S
$$

NMZ009-TXZ055-071200-
NEW MEXICO-WEST TEXAS

CITY           SKY/WX    TMP DP  RH WIND       PRES   REMARKS
ALBUQUERQUE    CLOUDY    63  57  81 E21G30    30.19F
EL PASO        PTCLDY    75  61  61 N5        30.05S
$$


........................KEY........................
SKY/WX - SKY CONDITION/WEATHER
TMP    - TEMPERATURE IN FAHRENHEIT
DP     - DEW POINT IN FAHRENHEIT
RH     - RELATIVE HUMIDITY IN PERCENT
WIND   - DIRECTION AND SPEED IN MILES PER HOUR (MPH)
VRB    - VARIABLE WIND DIRECTION
PRES   - MEAN SEA LEVEL PRESSURE IN INCHES OF MERCURY
         F - FALLING PRESSURE   R - RISING PRESSURE
         S - STEADY PRESSURE
VSB    - VISIBILITY IN MILES
HX     - HEAT INDEX IN FAHRENHEIT
WCI    - WIND CHILL INDEX IN FAHRENHEIT
TC     - TEMPERATURE IN CELSIUS WHICH IS ALSO KNOWN AS
         TEMPERATURE IN CENTIGRADE
AFB    - AIR FORCE BASE
         LUKE AFB IS LUKE AIR FORCE BASE
         DAVIS-MONTHAN IS DAVIS-MONTHAN AIR FORCE BASE
NAS    - NAVAL AIR STATION
         EL CENTRO NAS IS EL CENTRO NAVAL AIR STATION
N/A    - NOT AVAILABLE




USA.gov is the U.S. government's official web portal to all federal, state and local government web resources and services.